EAG5508 SUMU-SBGR

Flight info

Callsign EAG5508
Flight time 1h 54m
Altitude 41000
Route MOLBI UM540 AKPOD UZ131 NIGBI UZ121 BUXUK
Aircraft A359/H-SDE2E3GHIJ3J4J5LM1ORWXY/LB1D1

Departure

Time 2026-05-06 17:26
Airport Carrasco General Cesáreo L. Berisso International Airport (SUMU)

Arrival

Time 2026-05-06 19:20
Airport São Paulo/Guarulhos–Governor André Franco Montoro International Airport (SBGR)
Time Latitude Longitude Altitude Speed Heading
2026-05-06 16:47 -34.83619 -56.01802 92 ft 0 kts 144°
2026-05-06 17:16 -34.83607 -56.01812 92 ft 4 kts 144°
2026-05-06 17:17 -34.83586 -56.01832 90 ft 4 kts 143°
2026-05-06 17:17 -34.83567 -56.01848 92 ft 4 kts 162°
2026-05-06 17:17 -34.83545 -56.01846 91 ft 4 kts 224°
2026-05-06 17:17 -34.83529 -56.01822 91 ft 2 kts 233°
2026-05-06 17:18 -34.83525 -56.01815 92 ft 0 kts 233°
2026-05-06 17:20 -34.83527 -56.01819 91 ft 4 kts 234°
2026-05-06 17:20 -34.83565 -56.01886 92 ft 15 kts 234°
2026-05-06 17:20 -34.83641 -56.02008 93 ft 20 kts 233°
2026-05-06 17:21 -34.83721 -56.02138 93 ft 18 kts 233°
2026-05-06 17:21 -34.83795 -56.02228 92 ft 15 kts 203°
2026-05-06 17:21 -34.83894 -56.02244 91 ft 10 kts 183°
2026-05-06 17:21 -34.83945 -56.02292 92 ft 10 kts 254°
2026-05-06 17:22 -34.83947 -56.02388 90 ft 13 kts 272°
2026-05-06 17:22 -34.83945 -56.02507 92 ft 15 kts 269°
2026-05-06 17:22 -34.83949 -56.02645 90 ft 17 kts 261°
2026-05-06 17:22 -34.84003 -56.02785 93 ft 19 kts 251°
2026-05-06 17:23 -34.84010 -56.02948 92 ft 19 kts 270°
2026-05-06 17:23 -34.84028 -56.03111 91 ft 20 kts 248°
2026-05-06 17:23 -34.84097 -56.03272 93 ft 23 kts 242°
2026-05-06 17:23 -34.84158 -56.03412 93 ft 7 kts 242°
2026-05-06 17:24 -34.84165 -56.03428 93 ft 8 kts 242°
2026-05-06 17:24 -34.84229 -56.03572 93 ft 24 kts 243°
2026-05-06 17:24 -34.84202 -56.03665 91 ft 8 kts 17°
2026-05-06 17:24 -34.84172 -56.03631 92 ft 0 kts 53°
2026-05-06 17:25 -34.84159 -56.03611 93 ft 22 kts 53°
2026-05-06 17:25 -34.83919 -56.03216 91 ft 92 kts 53°
2026-05-06 17:25 -34.83415 -56.02387 93 ft 149 kts 53°
2026-05-06 17:25 -34.82778 -56.01331 669 ft 151 kts 54°
2026-05-06 17:26 -34.82156 -56.00298 1367 ft 154 kts 52°
2026-05-06 17:26 -34.81481 -55.99188 1702 ft 178 kts 50°
2026-05-06 17:26 -34.80683 -55.97889 1955 ft 204 kts 50°
2026-05-06 17:26 -34.79642 -55.96553 2188 ft 232 kts 41°
2026-05-06 17:27 -34.78419 -55.95180 2725 ft 244 kts 39°
2026-05-06 17:27 -34.77120 -55.93798 3404 ft 252 kts 37°
2026-05-06 17:27 -34.75770 -55.92403 4133 ft 257 kts 36°
2026-05-06 17:27 -34.74386 -55.90991 4840 ft 263 kts 35°
2026-05-06 17:28 -34.72970 -55.89554 5572 ft 267 kts 34°
2026-05-06 17:28 -34.71541 -55.88099 6400 ft 269 kts 34°
2026-05-06 17:28 -34.70123 -55.86649 7217 ft 271 kts 34°
2026-05-06 17:28 -34.68678 -55.85167 8084 ft 273 kts 35°
2026-05-06 17:29 -34.67222 -55.83673 8972 ft 275 kts 35°
2026-05-06 17:29 -34.65750 -55.82162 9846 ft 278 kts 35°
2026-05-06 17:29 -34.64239 -55.80618 10365 ft 293 kts 35°
2026-05-06 17:29 -34.62615 -55.78970 10664 ft 315 kts 35°
2026-05-06 17:30 -34.60878 -55.77206 10936 ft 336 kts 36°
2026-05-06 17:30 -34.59034 -55.75329 11212 ft 355 kts 36°
2026-05-06 17:30 -34.57139 -55.73391 11664 ft 366 kts 36°
2026-05-06 17:30 -34.55183 -55.71382 12254 ft 372 kts 36°
2026-05-06 17:31 -34.53193 -55.69338 12810 ft 379 kts 36°
2026-05-06 17:31 -34.51161 -55.67256 13367 ft 385 kts 36°
2026-05-06 17:31 -34.49099 -55.65147 13918 ft 390 kts 36°
2026-05-06 17:31 -34.47009 -55.63014 14395 ft 396 kts 36°
2026-05-06 17:32 -34.44894 -55.60857 14923 ft 399 kts 36°
2026-05-06 17:32 -34.42754 -55.58678 15432 ft 404 kts 35°
2026-05-06 17:32 -34.40593 -55.56480 15968 ft 408 kts 35°
2026-05-06 17:32 -34.38407 -55.54258 16502 ft 412 kts 35°
2026-05-06 17:33 -34.36224 -55.52042 17029 ft 417 kts 35°
2026-05-06 17:33 -34.33991 -55.49776 17523 ft 422 kts 35°
2026-05-06 17:33 -34.31743 -55.47448 18076 ft 428 kts 36°
2026-05-06 17:33 -34.29499 -55.45061 18606 ft 432 kts 36°
2026-05-06 17:34 -34.27244 -55.42639 19146 ft 435 kts 36°
2026-05-06 17:34 -34.24972 -55.40196 19692 ft 439 kts 36°
2026-05-06 17:34 -34.22674 -55.37735 20244 ft 442 kts 36°
2026-05-06 17:34 -34.20363 -55.35271 20794 ft 445 kts 36°
2026-05-06 17:35 -34.18029 -55.32792 21374 ft 448 kts 36°
2026-05-06 17:35 -34.15706 -55.30332 21911 ft 452 kts 36°
2026-05-06 17:35 -34.13331 -55.27822 22479 ft 456 kts 35°
2026-05-06 17:36 -34.08515 -55.22739 23548 ft 464 kts 35°
2026-05-06 17:36 -34.06072 -55.20166 24003 ft 469 kts 35°
2026-05-06 17:36 -34.03609 -55.17568 24505 ft 472 kts 35°
2026-05-06 17:36 -34.01129 -55.14956 25020 ft 475 kts 36°
2026-05-06 17:37 -33.98637 -55.12333 25522 ft 477 kts 36°
2026-05-06 17:37 -33.96159 -55.09726 25988 ft 481 kts 36°
2026-05-06 17:37 -33.93633 -55.07070 26471 ft 484 kts 36°
2026-05-06 17:37 -33.91087 -55.04396 26944 ft 487 kts 36°
2026-05-06 17:38 -33.88523 -55.01706 27415 ft 490 kts 36°
2026-05-06 17:38 -33.85945 -54.99004 27891 ft 493 kts 36°
2026-05-06 17:38 -33.83350 -54.96286 28328 ft 497 kts 36°
2026-05-06 17:38 -33.80738 -54.93552 28791 ft 500 kts 36°
2026-05-06 17:39 -33.78106 -54.90800 29246 ft 502 kts 36°
2026-05-06 17:39 -33.75463 -54.88038 29694 ft 505 kts 36°
2026-05-06 17:39 -33.72801 -54.85260 30098 ft 508 kts 36°
2026-05-06 17:39 -33.70155 -54.82502 30419 ft 512 kts 36°
2026-05-06 17:40 -33.67452 -54.79686 30669 ft 517 kts 36°
2026-05-06 17:40 -33.64726 -54.76850 30927 ft 521 kts 36°
2026-05-06 17:40 -33.61975 -54.73989 31191 ft 525 kts 36°
2026-05-06 17:40 -33.59205 -54.71110 31473 ft 528 kts 36°
2026-05-06 17:41 -33.56417 -54.68216 31719 ft 532 kts 35°
2026-05-06 17:41 -33.53613 -54.65306 31965 ft 535 kts 35°
2026-05-06 17:41 -33.50786 -54.62376 32223 ft 538 kts 35°
2026-05-06 17:41 -33.47951 -54.59439 32560 ft 539 kts 35°
2026-05-06 17:42 -33.45150 -54.56538 32894 ft 540 kts 35°
2026-05-06 17:42 -33.42304 -54.53594 33224 ft 541 kts 35°
2026-05-06 17:42 -33.39452 -54.50648 33562 ft 542 kts 35°
2026-05-06 17:42 -33.36598 -54.47702 33863 ft 543 kts 35°
2026-05-06 17:43 -33.33735 -54.44750 34132 ft 544 kts 35°
2026-05-06 17:43 -33.30868 -54.41797 34433 ft 544 kts 35°
2026-05-06 17:43 -33.27998 -54.38843 34733 ft 544 kts 35°
2026-05-06 17:43 -33.25128 -54.35892 35012 ft 544 kts 34°
2026-05-06 17:44 -33.22296 -54.32982 35281 ft 545 kts 34°
2026-05-06 17:44 -33.19423 -54.30033 35544 ft 545 kts 34°
2026-05-06 17:44 -33.16547 -54.27085 35781 ft 546 kts 34°
2026-05-06 17:44 -33.13664 -54.24131 36042 ft 546 kts 34°
2026-05-06 17:45 -33.10780 -54.21180 36303 ft 546 kts 34°
2026-05-06 17:45 -33.07895 -54.18230 36533 ft 547 kts 34°
2026-05-06 17:45 -33.05006 -54.15278 36758 ft 547 kts 34°
2026-05-06 17:45 -33.02113 -54.12326 37010 ft 547 kts 34°
2026-05-06 17:46 -32.99218 -54.09373 37220 ft 548 kts 34°
2026-05-06 17:46 -32.96328 -54.06428 37470 ft 548 kts 34°
2026-05-06 17:46 -32.93466 -54.03514 37696 ft 548 kts 34°
2026-05-06 17:46 -32.90564 -54.00562 37889 ft 549 kts 34°
2026-05-06 17:47 -32.87660 -53.97612 38073 ft 550 kts 34°
2026-05-06 17:47 -32.84748 -53.94656 38213 ft 551 kts 34°
2026-05-06 17:47 -32.81833 -53.91700 38419 ft 551 kts 34°
2026-05-06 17:47 -32.78916 -53.88743 38606 ft 551 kts 34°
2026-05-06 17:48 -32.75997 -53.85786 38792 ft 551 kts 34°
2026-05-06 17:48 -32.73081 -53.82836 38964 ft 551 kts 34°
2026-05-06 17:48 -32.70204 -53.79927 39150 ft 550 kts 34°
2026-05-06 17:48 -32.67290 -53.76983 39317 ft 550 kts 34°
2026-05-06 17:49 -32.64375 -53.74041 39505 ft 550 kts 34°
2026-05-06 17:49 -32.61460 -53.71103 39628 ft 550 kts 34°
2026-05-06 17:49 -32.55612 -53.65218 39815 ft 552 kts 34°
2026-05-06 17:50 -32.52685 -53.62276 39936 ft 552 kts 34°
2026-05-06 17:50 -32.49755 -53.59332 40090 ft 552 kts 34°
2026-05-06 17:50 -32.46733 -53.56562 40226 ft 544 kts 26°
2026-05-06 17:50 -32.43563 -53.54304 40368 ft 538 kts 21°
2026-05-06 17:51 -32.40293 -53.52159 40506 ft 536 kts 20°
2026-05-06 17:51 -32.37003 -53.50083 40641 ft 535 kts 19°
2026-05-06 17:51 -32.33708 -53.48045 40769 ft 535 kts 19°
2026-05-06 17:51 -32.30408 -53.46017 40894 ft 534 kts 19°
2026-05-06 17:52 -32.24926 -53.42646 40948 ft 535 kts 19°
2026-05-06 17:52 -32.18336 -53.38575 40948 ft 535 kts 19°
2026-05-06 17:53 -32.10676 -53.33834 40952 ft 535 kts 19°
2026-05-06 17:53 -32.04083 -53.29757 40954 ft 535 kts 19°
2026-05-06 17:54 -31.97491 -53.25687 40955 ft 535 kts 19°
2026-05-06 17:54 -31.92005 -53.22306 40965 ft 536 kts 19°
2026-05-06 17:55 -31.85385 -53.18234 40961 ft 537 kts 19°
2026-05-06 17:55 -31.77680 -53.13500 40971 ft 538 kts 19°
2026-05-06 17:56 -31.72128 -53.10095 40965 ft 537 kts 19°
2026-05-06 17:56 -31.65528 -53.06056 40974 ft 539 kts 19°
2026-05-06 17:57 -31.58871 -53.01985 40976 ft 540 kts 19°
2026-05-06 17:57 -31.52209 -52.97918 40978 ft 540 kts 19°
2026-05-06 17:58 -31.45538 -52.93853 40946 ft 541 kts 19°
2026-05-06 17:58 -31.38894 -52.89811 40987 ft 543 kts 19°
2026-05-06 17:59 -31.32188 -52.85738 40987 ft 543 kts 19°
2026-05-06 17:59 -31.25485 -52.81665 40988 ft 543 kts 19°
2026-05-06 18:00 -31.18782 -52.77603 40993 ft 543 kts 19°
2026-05-06 18:00 -31.12118 -52.73571 40993 ft 544 kts 19°
2026-05-06 18:01 -31.05395 -52.69511 40990 ft 545 kts 19°
2026-05-06 18:01 -30.98666 -52.65448 40992 ft 545 kts 19°
2026-05-06 18:02 -30.91933 -52.61392 40993 ft 545 kts 19°
2026-05-06 18:02 -30.85243 -52.57369 40991 ft 545 kts 19°
2026-05-06 18:03 -30.78503 -52.53324 40996 ft 545 kts 19°
2026-05-06 18:03 -30.71755 -52.49279 40998 ft 545 kts 19°
2026-05-06 18:04 -30.65008 -52.45244 41002 ft 546 kts 19°
2026-05-06 18:04 -30.58262 -52.41210 40999 ft 546 kts 20°
2026-05-06 18:05 -30.51549 -52.37199 41002 ft 547 kts 19°
2026-05-06 18:05 -30.44785 -52.33176 40999 ft 547 kts 19°
2026-05-06 18:06 -30.38018 -52.29150 40995 ft 546 kts 19°
2026-05-06 18:06 -30.31178 -52.25384 41000 ft 543 kts 15°
2026-05-06 18:07 -30.24270 -52.22018 40993 ft 542 kts 14°
2026-05-06 18:07 -30.17307 -52.18624 40995 ft 543 kts 15°
2026-05-06 18:08 -30.10360 -52.15173 40996 ft 543 kts 15°
2026-05-06 18:08 -30.03428 -52.11688 40990 ft 544 kts 15°
2026-05-06 18:09 -29.96528 -52.08223 40993 ft 545 kts 15°
2026-05-06 18:09 -29.89578 -52.04740 40991 ft 545 kts 15°
2026-05-06 18:10 -29.82623 -52.01263 40991 ft 545 kts 15°
2026-05-06 18:10 -29.75661 -51.97790 40996 ft 546 kts 16°
2026-05-06 18:11 -29.68738 -51.94343 41000 ft 547 kts 16°
2026-05-06 18:11 -29.61756 -51.90868 41003 ft 546 kts 16°
2026-05-06 18:12 -29.54777 -51.87402 40993 ft 546 kts 16°
2026-05-06 18:12 -29.47798 -51.83944 41002 ft 547 kts 16°
2026-05-06 18:13 -29.40862 -51.80511 41009 ft 547 kts 16°
2026-05-06 18:13 -29.33866 -51.77054 41016 ft 548 kts 16°
2026-05-06 18:14 -29.26964 -51.73284 41025 ft 556 kts 26°
2026-05-06 18:14 -29.20411 -51.68550 41032 ft 558 kts 28°
2026-05-06 18:15 -29.13972 -51.63668 41038 ft 559 kts 28°
2026-05-06 18:15 -29.07493 -51.58744 41042 ft 559 kts 28°
2026-05-06 18:16 -29.01007 -51.53848 41045 ft 559 kts 28°
2026-05-06 18:16 -28.94510 -51.48964 41058 ft 559 kts 28°
2026-05-06 18:17 -28.88052 -51.44121 41050 ft 559 kts 28°
2026-05-06 18:17 -28.81551 -51.39253 41063 ft 559 kts 28°
2026-05-06 18:18 -28.75050 -51.34392 41071 ft 559 kts 28°
2026-05-06 18:18 -28.68547 -51.29537 41075 ft 559 kts 28°
2026-05-06 18:19 -28.62084 -51.24720 41065 ft 559 kts 28°
2026-05-06 18:19 -28.55583 -51.19881 41080 ft 558 kts 28°
2026-05-06 18:20 -28.49084 -51.15051 41083 ft 558 kts 28°
2026-05-06 18:20 -28.42587 -51.10231 41090 ft 558 kts 28°
2026-05-06 18:21 -28.36135 -51.05450 41094 ft 558 kts 28°
2026-05-06 18:21 -28.29635 -51.00640 41088 ft 557 kts 28°
2026-05-06 18:22 -28.23147 -50.95847 41100 ft 556 kts 28°
2026-05-06 18:22 -28.16669 -50.91067 41101 ft 556 kts 28°
2026-05-06 18:23 -28.10228 -50.86321 41093 ft 556 kts 29°
2026-05-06 18:23 -28.03747 -50.81552 41106 ft 556 kts 29°
2026-05-06 18:24 -27.97420 -50.76504 41102 ft 557 kts 33°
2026-05-06 18:24 -27.91214 -50.71263 41105 ft 556 kts 33°
2026-05-06 18:25 -27.84994 -50.66065 41112 ft 556 kts 33°
2026-05-06 18:25 -27.78781 -50.60948 41111 ft 556 kts 33°
2026-05-06 18:26 -27.72518 -50.55822 41110 ft 556 kts 32°
2026-05-06 18:26 -27.66249 -50.50701 41119 ft 556 kts 33°
2026-05-06 18:27 -27.59980 -50.45585 41118 ft 556 kts 33°
2026-05-06 18:27 -27.53753 -50.40507 41116 ft 556 kts 33°
2026-05-06 18:28 -27.47494 -50.35411 41120 ft 555 kts 33°
2026-05-06 18:28 -27.41227 -50.30317 41124 ft 555 kts 33°
2026-05-06 18:29 -27.34958 -50.25230 41119 ft 555 kts 33°
2026-05-06 18:29 -27.28736 -50.20187 41120 ft 555 kts 33°
2026-05-06 18:30 -27.22467 -50.15114 41126 ft 556 kts 33°
2026-05-06 18:30 -27.16189 -50.10039 41120 ft 556 kts 33°
2026-05-06 18:31 -27.09903 -50.04966 41116 ft 556 kts 33°
2026-05-06 18:31 -27.03617 -49.99902 41106 ft 556 kts 33°
2026-05-06 18:32 -26.97374 -49.94879 41114 ft 556 kts 33°
2026-05-06 18:32 -26.91087 -49.89826 41111 ft 556 kts 33°
2026-05-06 18:33 -26.84791 -49.84776 41110 ft 556 kts 33°
2026-05-06 18:33 -26.78497 -49.79732 41115 ft 556 kts 33°
2026-05-06 18:34 -26.72241 -49.74724 41105 ft 557 kts 33°
2026-05-06 18:34 -26.65943 -49.69691 41117 ft 556 kts 33°
2026-05-06 18:35 -26.59653 -49.64671 41115 ft 556 kts 33°
2026-05-06 18:35 -26.53356 -49.59653 41118 ft 556 kts 33°
2026-05-06 18:36 -26.47060 -49.54642 41118 ft 556 kts 33°
2026-05-06 18:36 -26.40806 -49.49674 41113 ft 556 kts 33°
2026-05-06 18:37 -26.34500 -49.44669 41120 ft 556 kts 33°
2026-05-06 18:37 -26.28196 -49.39672 41119 ft 556 kts 33°
2026-05-06 18:38 -26.21881 -49.34673 41119 ft 556 kts 33°
2026-05-06 18:38 -26.15568 -49.29683 41129 ft 557 kts 33°
2026-05-06 18:39 -26.09273 -49.24757 41113 ft 557 kts 31°
2026-05-06 18:40 -25.99322 -49.18135 41126 ft 555 kts 27°
2026-05-06 18:40 -25.92639 -49.13815 41121 ft 555 kts 28°
2026-05-06 18:41 -25.85998 -49.09434 41131 ft 556 kts 28°
2026-05-06 18:41 -25.79409 -49.05045 41137 ft 556 kts 29°
2026-05-06 18:42 -25.72780 -49.00631 41158 ft 556 kts 28°
2026-05-06 18:42 -25.66145 -48.96226 41165 ft 556 kts 29°
2026-05-06 18:43 -25.59505 -48.91820 41162 ft 556 kts 28°
2026-05-06 18:43 -25.52916 -48.87456 41148 ft 555 kts 29°
2026-05-06 18:44 -25.46278 -48.83073 41129 ft 556 kts 28°
2026-05-06 18:44 -25.39537 -48.78899 41117 ft 555 kts 26°
2026-05-06 18:45 -25.32746 -48.74841 41117 ft 555 kts 26°
2026-05-06 18:45 -25.26004 -48.70789 41115 ft 555 kts 26°
2026-05-06 18:46 -25.19226 -48.66702 41114 ft 555 kts 26°
2026-05-06 18:46 -25.12442 -48.62620 41110 ft 556 kts 26°
2026-05-06 18:47 -25.05655 -48.58541 41113 ft 556 kts 26°
2026-05-06 18:47 -24.98865 -48.54464 41107 ft 555 kts 26°
2026-05-06 18:48 -24.92129 -48.50406 41111 ft 556 kts 27°
2026-05-06 18:48 -24.85363 -48.46303 41102 ft 554 kts 27°
2026-05-06 18:49 -24.78605 -48.42221 41105 ft 554 kts 27°
2026-05-06 18:49 -24.71826 -48.38134 41099 ft 556 kts 27°
2026-05-06 18:50 -24.65033 -48.34042 41104 ft 556 kts 26°
2026-05-06 18:50 -24.58295 -48.29993 41104 ft 556 kts 27°
2026-05-06 18:51 -24.51506 -48.25920 41101 ft 556 kts 27°
2026-05-06 18:51 -24.44714 -48.21850 41110 ft 556 kts 27°
2026-05-06 18:52 -24.37918 -48.17779 41078 ft 557 kts 27°
2026-05-06 18:52 -24.34560 -48.15770 40837 ft 557 kts 27°
2026-05-06 18:52 -24.31154 -48.13749 40589 ft 557 kts 26°
2026-05-06 18:52 -24.27737 -48.11736 40333 ft 558 kts 26°
2026-05-06 18:53 -24.24317 -48.09722 40103 ft 559 kts 26°
2026-05-06 18:53 -24.20893 -48.07706 39773 ft 557 kts 27°
2026-05-06 18:53 -24.17490 -48.05702 39244 ft 555 kts 27°
2026-05-06 18:53 -24.14086 -48.03697 38610 ft 555 kts 27°
2026-05-06 18:54 -24.10680 -48.01694 37913 ft 555 kts 27°
2026-05-06 18:54 -24.07281 -47.99697 37254 ft 555 kts 27°
2026-05-06 18:54 -24.03882 -47.97700 36596 ft 554 kts 27°
2026-05-06 18:54 -24.00528 -47.95732 35932 ft 554 kts 27°
2026-05-06 18:55 -23.97132 -47.93739 35243 ft 555 kts 27°
2026-05-06 18:55 -23.93725 -47.91741 34486 ft 557 kts 27°
2026-05-06 18:55 -23.90308 -47.89739 33637 ft 560 kts 27°
2026-05-06 18:55 -23.86868 -47.87724 32770 ft 560 kts 27°
2026-05-06 18:56 -23.83432 -47.85713 31949 ft 560 kts 27°
2026-05-06 18:56 -23.79996 -47.83703 31097 ft 561 kts 28°
2026-05-06 18:56 -23.76652 -47.81509 30242 ft 560 kts 36°
2026-05-06 18:56 -23.73689 -47.78791 29253 ft 551 kts 44°
2026-05-06 18:57 -23.70983 -47.75963 28459 ft 543 kts 45°
2026-05-06 18:57 -23.68292 -47.73109 27827 ft 537 kts 45°
2026-05-06 18:57 -23.65624 -47.70284 27214 ft 531 kts 45°
2026-05-06 18:57 -23.62988 -47.67505 26744 ft 523 kts 45°
2026-05-06 18:58 -23.60386 -47.64763 26377 ft 519 kts 45°
2026-05-06 18:58 -23.57808 -47.62049 26007 ft 517 kts 45°
2026-05-06 18:58 -23.55218 -47.59326 25625 ft 513 kts 45°
2026-05-06 18:58 -23.52661 -47.56640 25234 ft 509 kts 45°
2026-05-06 18:59 -23.50124 -47.53978 24853 ft 504 kts 45°
2026-05-06 18:59 -23.47640 -47.51373 24471 ft 500 kts 45°
2026-05-06 18:59 -23.45142 -47.48756 24100 ft 496 kts 44°
2026-05-06 18:59 -23.42661 -47.46158 23736 ft 493 kts 44°
2026-05-06 19:00 -23.40203 -47.43585 23338 ft 489 kts 44°
2026-05-06 19:00 -23.37760 -47.41031 22976 ft 485 kts 44°
2026-05-06 19:00 -23.35338 -47.38500 22685 ft 482 kts 45°
2026-05-06 19:00 -23.32928 -47.35979 22361 ft 479 kts 45°
2026-05-06 19:01 -23.30538 -47.33480 22066 ft 475 kts 45°
2026-05-06 19:01 -23.28161 -47.30997 21766 ft 472 kts 45°
2026-05-06 19:01 -23.25800 -47.28533 21476 ft 469 kts 45°
2026-05-06 19:01 -23.23480 -47.26112 21200 ft 466 kts 45°
2026-05-06 19:02 -23.21152 -47.23684 20894 ft 464 kts 45°
2026-05-06 19:02 -23.18830 -47.21265 20651 ft 461 kts 45°
2026-05-06 19:02 -23.16523 -47.18861 20364 ft 458 kts 45°
2026-05-06 19:02 -23.14225 -47.16469 20089 ft 455 kts 45°
2026-05-06 19:03 -23.12040 -47.14036 19812 ft 452 kts 49°
2026-05-06 19:03 -23.10398 -47.12065 19596 ft 450 kts 50°
2026-05-06 19:03 -23.08311 -47.09550 19320 ft 447 kts 49°
2026-05-06 19:03 -23.06220 -47.07050 19087 ft 446 kts 49°
2026-05-06 19:04 -23.04164 -47.04608 18433 ft 444 kts 49°
2026-05-06 19:04 -23.02081 -47.02144 17625 ft 442 kts 49°
2026-05-06 19:04 -23.00010 -46.99701 16924 ft 437 kts 49°
2026-05-06 19:04 -22.97964 -46.97294 16390 ft 429 kts 49°
2026-05-06 19:05 -22.95967 -46.94950 16014 ft 418 kts 49°
2026-05-06 19:05 -22.94025 -46.92669 15749 ft 404 kts 49°
2026-05-06 19:05 -22.92167 -46.90486 15435 ft 381 kts 49°
2026-05-06 19:05 -22.90424 -46.88441 15062 ft 358 kts 49°
2026-05-06 19:06 -22.88939 -46.86404 14667 ft 334 kts 65°
2026-05-06 19:06 -22.88365 -46.84061 14167 ft 316 kts 91°
2026-05-06 19:06 -22.88804 -46.81806 14045 ft 304 kts 113°
2026-05-06 19:06 -22.89929 -46.79914 13809 ft 305 kts 134°
2026-05-06 19:07 -22.91670 -46.78633 13508 ft 305 kts 157°
2026-05-06 19:07 -22.93667 -46.77857 13234 ft 305 kts 156°
2026-05-06 19:07 -22.95500 -46.76700 12968 ft 304 kts 143°
2026-05-06 19:07 -22.97180 -46.75317 12695 ft 303 kts 141°
2026-05-06 19:08 -22.98835 -46.73901 12433 ft 302 kts 140°
2026-05-06 19:08 -23.00479 -46.72487 12169 ft 302 kts 140°
2026-05-06 19:08 -23.02127 -46.71071 11901 ft 301 kts 140°
2026-05-06 19:08 -23.03767 -46.69663 11632 ft 301 kts 140°
2026-05-06 19:09 -23.05383 -46.68275 11379 ft 300 kts 140°
2026-05-06 19:09 -23.07020 -46.66868 11122 ft 300 kts 140°
2026-05-06 19:09 -23.08657 -46.65462 10844 ft 300 kts 140°
2026-05-06 19:09 -23.10292 -46.64056 10588 ft 299 kts 140°
2026-05-06 19:10 -23.11924 -46.62655 10326 ft 298 kts 140°
2026-05-06 19:10 -23.13547 -46.61260 10069 ft 297 kts 140°
2026-05-06 19:10 -23.15161 -46.59873 9848 ft 292 kts 140°
2026-05-06 19:10 -23.16720 -46.58532 9656 ft 281 kts 140°
2026-05-06 19:11 -23.18236 -46.57231 9414 ft 274 kts 140°
2026-05-06 19:11 -23.19835 -46.56185 9174 ft 273 kts 158°
2026-05-06 19:11 -23.21715 -46.55970 8912 ft 276 kts 188°
2026-05-06 19:11 -23.23472 -46.56754 8614 ft 275 kts 211°
2026-05-06 19:12 -23.25079 -46.57884 8358 ft 274 kts 213°
2026-05-06 19:12 -23.26649 -46.59033 8127 ft 271 kts 213°
2026-05-06 19:12 -23.28214 -46.60174 7872 ft 270 kts 213°
2026-05-06 19:12 -23.29775 -46.61296 7561 ft 267 kts 212°
2026-05-06 19:13 -23.31322 -46.62402 7330 ft 266 kts 212°
2026-05-06 19:13 -23.32871 -46.63505 7153 ft 265 kts 212°
2026-05-06 19:13 -23.34392 -46.64587 6956 ft 265 kts 212°
2026-05-06 19:13 -23.35940 -46.65686 6784 ft 266 kts 212°
2026-05-06 19:14 -23.37485 -46.66787 6572 ft 264 kts 212°
2026-05-06 19:14 -23.39019 -46.67880 6372 ft 264 kts 212°
2026-05-06 19:14 -23.40612 -46.68837 6180 ft 261 kts 199°
2026-05-06 19:14 -23.42387 -46.69026 6025 ft 256 kts 168°
2026-05-06 19:15 -23.43984 -46.68238 5816 ft 253 kts 138°
2026-05-06 19:15 -23.45085 -46.66813 5651 ft 241 kts 123°
2026-05-06 19:15 -23.45997 -46.65334 5557 ft 230 kts 122°
2026-05-06 19:15 -23.46818 -46.63925 5478 ft 217 kts 116°
2026-05-06 19:16 -23.47151 -46.62419 5390 ft 201 kts 86°
2026-05-06 19:16 -23.46884 -46.60984 5290 ft 187 kts 73°
2026-05-06 19:16 -23.46521 -46.59676 5171 ft 174 kts 73°
2026-05-06 19:16 -23.46167 -46.58452 4936 ft 165 kts 73°
2026-05-06 19:17 -23.45853 -46.57261 4610 ft 162 kts 73°
2026-05-06 19:17 -23.45533 -46.56099 4319 ft 160 kts 73°
2026-05-06 19:17 -23.45201 -46.54952 4076 ft 156 kts 72°
2026-05-06 19:17 -23.44896 -46.53833 3807 ft 152 kts 75°
2026-05-06 19:18 -23.44620 -46.52732 3561 ft 153 kts 75°
2026-05-06 19:18 -23.44307 -46.51631 3297 ft 151 kts 74°
2026-05-06 19:18 -23.44026 -46.50548 3063 ft 145 kts 75°
2026-05-06 19:18 -23.43743 -46.49494 2804 ft 145 kts 74°
2026-05-06 19:19 -23.43458 -46.48452 2558 ft 141 kts 75°
2026-05-06 19:19 -23.43191 -46.47456 2476 ft 128 kts 75°
2026-05-06 19:19 -23.42976 -46.46662 2478 ft 91 kts 73°
2026-05-06 19:19 -23.42835 -46.46139 2476 ft 53 kts 73°
2026-05-06 19:20 -23.42755 -46.45846 2475 ft 33 kts 73°
2026-05-06 19:20 -23.42699 -46.45688 2476 ft 22 kts 58°
2026-05-06 19:20 -23.42613 -46.45575 2476 ft 15 kts 44°
2026-05-06 19:20 -23.42539 -46.45499 2476 ft 11 kts 49°
2026-05-06 19:21 -23.42500 -46.45478 2476 ft 6 kts 342°
2026-05-06 19:21 -23.42495 -46.45526 2475 ft 10 kts 255°
2026-05-06 19:21 -23.42520 -46.45619 2475 ft 17 kts 253°
2026-05-06 19:21 -23.42556 -46.45752 2476 ft 19 kts 253°
2026-05-06 19:22 -23.42596 -46.45896 2478 ft 21 kts 253°
2026-05-06 19:22 -23.42639 -46.46055 2477 ft 23 kts 253°
2026-05-06 19:22 -23.42684 -46.46225 2478 ft 24 kts 253°
2026-05-06 19:22 -23.42732 -46.46404 2475 ft 25 kts 254°
2026-05-06 19:23 -23.42783 -46.46594 2475 ft 27 kts 253°
2026-05-06 19:23 -23.42836 -46.46791 2475 ft 28 kts 253°
2026-05-06 19:23 -23.42892 -46.46997 2475 ft 29 kts 253°
2026-05-06 19:23 -23.42951 -46.47213 2474 ft 30 kts 253°
2026-05-06 19:24 -23.42994 -46.47379 2474 ft 13 kts 253°
2026-05-06 19:24 -23.42963 -46.47451 2474 ft 12 kts 333°
2026-05-06 19:24 -23.42885 -46.47480 2477 ft 10 kts 355°
2026-05-06 19:24 -23.42847 -46.47436 2474 ft 9 kts 72°
2026-05-06 19:25 -23.42836 -46.47400 2477 ft 1 kts 72°
2026-05-06 19:25 -23.42836 -46.47397 2477 ft 2 kts 73°
2026-05-06 19:25 -23.42831 -46.47379 2476 ft 2 kts 73°
2026-05-06 19:25 -23.42830 -46.47377 2476 ft 0 kts 73°